QPF
0.00 0.00 0.00 0.00 0.00 0.00 0.00 0.00 0.00 0.00 0.00 0.00 0.00 0.00 0.00 0.00 0.00 0.00 0.00 0.00 0.00 0.00 0.00 0.00 0.00 0.00 0.00 0.00 0.00 0.00 0.00 0.00 0.00 0.00 0.00 0.00 0.00 0.00 0.00 0.00 0.00 0.00 0.00 0.00
0.00 0.00 0.00 0.00 0.00 0.00 0.00 0.00 0.00 0.00 0.00 0.00 0.00 0.00 0.00 0.00 0.00 0.00 0.00 0.00 0.00 0.00 0.00 0.00 0.00 0.00 0.00 0.00 0.00 0.00 0.00 0.00 0.00 0.00 0.00 0.00 0.00 0.00 0.00 0.00 0.00 0.00 0.00 0.00
0.00 0.00 0.00 0.00 0.00 0.00 0.00 0.00 0.00 0.00 0.00 0.00 0.00 0.00 0.00 0.00 0.00 0.00 0.00 0.00 0.00 0.00 0.00 0.00 0.00 0.00 0.00 0.00 0.00 0.00 0.00 0.00 0.00 0.00 0.00 0.00 0.00 0.00 0.00 0.00 0.00 0.00 0.00 0.00
0.00 0.00 0.00 0.00 0.00 0.00 0.00 0.00 0.00 0.00 0.00 0.00 0.00 0.00 0.00 0.00 0.00 0.00 0.00 0.00 0.00 0.00 0.00 0.00 0.00 0.00 0.00 0.00 0.00 0.00 0.00 0.00 0.00 0.00 0.00 0.00 0.00 0.00 0.00 0.00 0.00 0.00 0.00 0.00
0.00 0.00 0.00 0.00 0.00 0.00 0.00 0.00 0.00 0.00 0.00 0.00 0.00 0.00 0.00 0.00 0.00 0.00 0.00 0.00 0.00 0.00 0.00 0.00 0.00 0.00 0.00 0.00 0.00 0.00 0.00 0.00 0.00 0.00 0.00 0.00 0.00 0.00 0.00 0.00 0.00 0.00 0.00 0.00
0.00 0.00 0.00 0.00 0.00 0.00 0.00 0.00 0.00 0.00 0.00 0.00 0.00 0.00 0.00 0.00 0.00 0.00 0.00 0.00 0.00 0.00 0.00 0.00 0.00 0.00 0.00 0.00 0.00 0.00 0.00 0.00 0.00 0.00 0.00 0.00 0.00 0.00 0.00 0.00 0.00 0.00 0.00 0.00
0.00 0.00 0.00 0.00 0.00 0.00 0.00 0.00 0.00 0.00 0.00 0.00 0.00 0.00 0.00 0.00 0.00 0.00 0.00 0.00 0.00 0.00 0.00 0.00 0.00 0.00 0.00 0.00 0.00 0.00 0.00 0.00 0.00 0.00 0.00 0.00 0.00 0.00 0.00 0.00 0.00 0.00 0.00 0.00
0.00 0.00 0.00 0.00 0.00 0.00 0.00 0.00 0.00 0.00 0.00 0.00 0.00 0.00 0.00 0.00 0.00 0.00 0.00 0.00 0.00 0.00 0.00 0.00 0.00 0.00 0.00 0.00 0.00 0.00 0.00 0.00 0.00 0.00 0.00 0.00 0.00 0.00 0.00 0.00 0.00 0.00 0.00 0.00
0.00 0.00 0.00 0.00 0.00 0.00 0.00 0.00 0.00 0.00 0.00 0.00 0.00 0.00 0.00 0.00 0.00 0.00 0.00 0.00 0.00 0.00 0.00 0.00 0.00 0.00 0.00 0.00 0.00 0.00 0.00 0.00 0.00 0.00 0.00 0.00 0.00 0.00 0.00 0.00 0.00 0.00 0.00 0.00
0.00 0.00 0.00 0.00 0.00 0.00 0.00 0.00 0.00 0.00 0.00 0.00 0.00 0.00 0.00 0.00 0.00 0.00 0.00 0.00 0.00 0.00 0.00 0.00 0.00 0.00 0.00 0.00 0.00 0.00 0.00 0.00 0.00 0.00 0.00 0.00 0.00 0.00 0.00 0.00 0.00 0.00 0.00 0.00
0.00 0.00 0.00 0.00 0.00 0.00 0.00 0.00 0.00 0.00 0.00 0.00 0.00 0.00 0.00 0.00 0.00 0.00 0.00 0.00 0.00 0.00 0.00 0.00 0.00 0.00 0.01 0.01 0.01 0.00 0.00 0.00 0.00 0.00 0.00 0.00 0.00 0.00 0.00 0.00 0.00 0.00 0.00 0.00
0.00 0.00 0.00 0.00 0.00 0.00 0.00 0.00 0.00 0.00 0.00 0.00 0.00 0.00 0.00 0.00 0.00 0.00 0.00 0.00 0.00 0.00 0.00 0.00 0.00 0.01 0.02 0.00 0.00 0.01 0.01 0.00 0.00 0.00 0.00 0.00 0.00 0.00 0.00 0.00 0.00 0.00 0.00 0.00
0.00 0.00 0.00 0.00 0.00 0.00 0.00 0.00 0.00 0.00 0.00 0.00 0.00 0.00 0.00 0.00 0.00 0.00 0.00 0.00 0.00 0.00 0.00 0.00 0.00 0.00 0.00 0.00 0.00 0.01 0.02 0.00 0.00 0.00 0.00 0.00 0.00 0.00 0.00 0.00 0.00 0.00 0.00 0.00
0.00 0.00 0.00 0.00 0.00 0.00 0.00 0.00 0.00 0.00 0.00 0.00 0.00 0.00 0.00 0.00 0.00 0.00 0.00 0.00 0.00 0.00 0.00 0.00 0.00 0.00 0.00 0.00 0.00 0.01 0.01 0.00 0.00 0.00 0.00 0.00 0.00 0.00 0.00 0.00 0.00 0.00 0.00 0.00
0.00 0.00 0.00 0.00 0.00 0.00 0.00 0.00 0.00 0.00 0.00 0.00 0.00 0.00 0.00 0.00 0.00 0.00 0.00 0.00 0.00 0.00 0.00 0.00 0.00 0.00 0.00 0.00 0.01 0.03 0.11 0.05 0.01 0.00 0.00 0.00 0.00 0.00 0.00 0.00 0.00 0.00 0.00 0.00
0.00 0.00 0.00 0.00 0.00 0.00 0.00 0.00 0.00 0.00 0.00 0.00 0.00 0.00 0.00 0.00 0.00 0.00 0.00 0.00 0.00 0.00 0.00 0.00 0.00 0.00 0.00 0.00 0.00 0.02 0.07 0.07 0.05 0.07 0.02 0.00 0.00 0.00 0.00 0.00 0.00 0.00 0.00 0.00
0.00 0.00 0.00 0.00 0.00 0.00 0.00 0.00 0.00 0.00 0.00 0.00 0.00 0.00 0.00 0.00 0.02 0.02 0.00 0.00 0.00 0.00 0.00 0.00 0.00 0.00 0.00 0.00 0.00 0.01 0.02 0.06 0.06 0.05 0.05 0.03 0.00 0.00 0.00 0.00 0.00 0.00 0.00 0.00
0.00 0.00 0.00 0.00 0.00 0.00 0.00 0.01 0.00 0.00 0.00 0.00 0.00 0.00 0.01 0.01 0.03 0.04 0.04 0.01 0.00 0.00 0.00 0.01 0.00 0.01 0.01 0.00 0.00 0.00 0.00 0.03 0.07 0.10 0.12 0.10 0.03 0.01 0.00 0.00 0.00 0.00 0.00 0.00
0.00 0.00 0.00 0.00 0.00 0.01 0.02 0.02 0.00 0.01 0.00 0.00 0.01 0.01 0.01 0.02 0.05 0.06 0.04 0.03 0.02 0.01 0.00 0.01 0.02 0.02 0.02 0.01 0.00 0.02 0.00 0.00 0.04 0.06 0.06 0.03 0.01 0.00 0.00 0.00 0.00 0.00 0.00 0.00
0.00 0.00 0.00 0.00 0.00 0.01 0.02 0.02 0.01 0.01 0.00 0.01 0.02 0.03 0.03 0.10 0.12 0.06 0.05 0.03 0.01 0.01 0.01 0.01 0.00 0.01 0.02 0.02 0.02 0.04 0.04 0.04 0.03 0.03 0.08 0.07 0.03 0.01 0.00 0.00 0.00 0.00 0.00 0.00
0.00 0.00 0.00 0.00 0.00 0.00 0.00 0.00 0.00 0.03 0.00 0.00 0.01 0.04 0.05 0.10 0.09 0.07 0.06 0.04 0.03 0.03 0.02 0.01 0.01 0.01 0.00 0.00 0.01 0.01 0.00 0.01 0.02 0.02 0.04 0.04 0.06 0.05 0.03 0.02 0.02 0.04 0.05 0.01
0.00 0.00 0.00 0.00 0.01 0.01 0.01 0.02 0.05 0.01 0.01 0.01 0.00 0.02 0.09 0.08 0.07 0.10 0.10 0.08 0.06 0.05 0.04 0.02 0.01 0.00 0.00 0.00 0.00 0.00 0.00 0.00 0.00 0.00 0.00 0.00 0.00 0.01 0.02 0.01 0.03 0.05 0.05 0.02
0.01 0.00 0.00 0.00 0.03 0.01 0.01 0.01 0.04 0.03 0.03 0.01 0.00 0.00 0.01 0.04 0.08 0.07 0.08 0.08 0.08 0.06 0.03 0.03 0.02 0.01 0.00 0.00 0.00 0.00 0.00 0.00 0.00 0.00 0.00 0.00 0.00 0.00 0.00 0.00 0.00 0.00 0.00 0.03
0.01 0.00 0.01 0.02 0.02 0.01 0.02 0.04 0.03 0.05 0.04 0.03 0.01 0.00 0.00 0.01 0.02 0.03 0.03 0.04 0.04 0.03 0.03 0.01 0.01 0.01 0.00 0.00 0.00 0.00 0.00 0.00 0.00 0.00 0.00 0.00 0.00 0.00 0.00 0.00 0.00 0.00 0.00 0.00
0.06 0.05 0.01 0.02 0.05 0.02 0.04 0.09 0.07 0.04 0.03 0.02 0.03 0.01 0.00 0.00 0.00 0.01 0.01 0.01 0.01 0.00 0.00 0.00 0.00 0.00 0.00 0.00 0.00 0.00 0.00 0.00 0.00 0.00 0.00 0.00 0.00 0.00 0.00 0.00 0.00 0.00 0.00 0.00
0.05 0.05 0.02 0.02 0.03 0.04 0.02 0.02 0.01 0.01 0.01 0.00 0.00 0.00 0.00 0.00 0.00 0.00 0.00 0.00 0.00 0.00 0.00 0.00 0.00 0.00 0.00 0.00 0.00 0.00 0.00 0.00 0.00 0.00 0.00 0.00 0.00 0.00 0.00 0.00 0.00 0.00 0.00 0.00
MSLP
1007.29 1007.86 1008.02 1007.92 1007.99 1008.02 1008.41 1009.03 1009.68 1009.96 1010.38 1010.93 1011.16 1011.45 1011.68 1011.96 1012.17 1012.09 1012.20 1012.09 1012.39 1012.56 1012.76 1013.31 1013.53 1014.01 1014.61 1015.21 1015.64 1015.80 1016.24 1016.55 1017.01 1017.44 1017.73 1018.00 1017.97 1017.94 1018.12 1018.07 1017.82 1018.01 1018.13 1018.39
1007.76 1007.74 1007.39 1007.56 1007.75 1007.95 1008.14 1008.50 1009.27 1009.93 1010.34 1010.85 1011.15 1011.22 1011.42 1011.53 1011.21 1011.43 1011.49 1011.63 1011.66 1012.14 1012.57 1012.89 1013.43 1013.85 1014.30 1014.75 1015.27 1015.77 1016.09 1016.51 1016.82 1017.17 1017.35 1017.49 1017.65 1017.79 1017.96 1018.11 1018.25 1018.33 1018.20 1018.31
1007.43 1007.20 1007.08 1007.31 1007.58 1007.81 1007.90 1008.22 1008.87 1009.67 1010.42 1010.72 1011.18 1011.26 1011.06 1011.02 1011.10 1011.25 1011.01 1011.03 1011.17 1011.41 1012.00 1012.52 1013.15 1013.53 1013.92 1014.45 1014.90 1015.35 1015.76 1016.35 1016.68 1017.04 1017.37 1017.63 1017.76 1017.93 1018.26 1018.44 1018.42 1018.33 1018.34 1018.40
1007.31 1006.82 1006.80 1007.04 1007.20 1007.39 1007.71 1007.70 1008.42 1009.48 1010.43 1011.10 1011.06 1011.32 1010.63 1010.15 1010.24 1010.40 1010.16 1010.19 1010.31 1010.65 1011.12 1011.76 1012.36 1013.08 1013.50 1013.80 1014.31 1014.89 1015.44 1015.86 1016.46 1016.87 1017.22 1017.45 1017.65 1018.01 1018.13 1018.10 1018.29 1018.31 1018.24 1018.54
1006.96 1006.76 1006.71 1006.69 1006.70 1006.96 1007.31 1007.31 1008.21 1009.44 1010.74 1011.20 1011.38 1011.62 1009.74 1009.53 1009.77 1008.98 1008.81 1008.98 1009.08 1009.43 1010.12 1010.78 1011.38 1012.03 1012.48 1013.39 1013.90 1014.49 1014.95 1015.54 1015.85 1016.44 1016.92 1017.32 1017.71 1017.69 1017.84 1018.13 1018.34 1018.53 1018.43 1018.53
1006.86 1006.59 1006.44 1006.26 1006.51 1006.65 1007.04 1007.71 1009.01 1010.38 1011.37 1011.86 1010.85 1010.98 1008.96 1008.56 1007.28 1007.55 1007.96 1008.22 1008.27 1008.69 1009.19 1009.71 1010.47 1011.21 1012.04 1012.75 1013.53 1014.25 1014.66 1015.23 1015.45 1015.94 1016.63 1016.93 1017.35 1017.68 1018.04 1018.29 1018.49 1018.62 1018.66 1018.64
1007.47 1007.01 1006.43 1006.13 1006.64 1007.04 1007.45 1008.65 1010.17 1011.67 1012.45 1012.02 1010.76 1010.38 1007.82 1006.51 1005.93 1005.74 1006.13 1006.84 1007.34 1007.78 1008.57 1009.30 1010.14 1010.75 1011.49 1012.13 1012.93 1013.78 1014.21 1014.98 1015.33 1015.68 1016.16 1016.53 1016.84 1017.26 1017.66 1017.94 1018.13 1018.45 1018.48 1018.53
1008.36 1007.91 1006.84 1006.41 1006.46 1007.01 1008.01 1008.77 1010.19 1011.33 1012.28 1011.83 1010.91 1009.28 1006.29 1004.88 1004.63 1004.63 1004.64 1005.10 1006.31 1007.01 1007.59 1008.28 1008.98 1009.74 1010.64 1011.39 1012.30 1012.93 1013.74 1014.49 1015.02 1015.38 1015.77 1016.12 1016.36 1016.77 1017.15 1017.48 1017.78 1017.89 1018.00 1017.97
1008.70 1008.00 1006.95 1006.36 1006.48 1006.84 1008.36 1008.99 1009.48 1011.14 1012.31 1012.00 1010.30 1008.30 1005.71 1004.05 1004.09 1004.22 1004.31 1004.86 1005.37 1006.21 1006.62 1007.22 1008.28 1009.10 1009.78 1010.55 1011.46 1012.12 1013.00 1013.87 1014.55 1014.91 1015.34 1015.85 1016.11 1016.48 1016.76 1017.04 1017.49 1017.67 1017.80 1017.78
1008.23 1008.35 1007.10 1006.43 1006.47 1007.06 1007.32 1008.40 1010.06 1011.34 1012.12 1012.10 1010.32 1008.69 1006.44 1004.84 1004.15 1004.26 1004.21 1004.37 1004.86 1005.46 1006.18 1006.86 1007.83 1008.68 1009.53 1010.17 1010.95 1011.89 1012.28 1013.02 1013.71 1014.44 1014.94 1015.34 1015.70 1016.04 1016.38 1016.78 1017.13 1017.43 1017.54 1017.68
1008.49 1008.62 1008.14 1007.14 1006.80 1007.22 1008.09 1008.59 1009.82 1010.68 1011.28 1011.37 1010.52 1008.71 1005.92 1005.13 1004.73 1004.63 1004.51 1004.49 1004.65 1005.06 1005.62 1005.99 1006.81 1008.03 1009.16 1009.88 1010.40 1011.19 1012.02 1012.69 1013.36 1014.04 1014.54 1015.04 1015.37 1015.74 1016.11 1016.23 1016.65 1017.00 1017.27 1017.53
1008.80 1008.89 1009.15 1008.04 1007.44 1007.11 1007.33 1008.18 1009.01 1010.54 1011.48 1011.14 1009.93 1007.44 1005.90 1005.28 1005.01 1005.01 1004.95 1004.50 1004.54 1004.70 1005.14 1005.82 1006.40 1007.49 1008.69 1009.65 1010.22 1010.53 1011.19 1011.90 1012.48 1013.13 1013.79 1014.46 1014.89 1015.39 1015.74 1015.99 1016.09 1016.51 1016.89 1017.09
1009.32 1009.86 1009.69 1008.97 1008.40 1007.72 1007.67 1008.19 1008.73 1009.61 1010.22 1010.37 1009.86 1007.52 1006.16 1005.71 1006.08 1005.82 1005.95 1006.21 1005.40 1005.58 1005.90 1006.14 1006.83 1007.43 1007.99 1008.73 1009.51 1010.09 1010.57 1011.05 1011.67 1012.43 1013.18 1013.90 1014.45 1014.88 1015.14 1015.45 1015.81 1016.07 1016.47 1016.75
1009.89 1010.10 1009.83 1009.12 1008.47 1008.08 1008.17 1008.15 1008.57 1009.01 1010.19 1009.92 1008.82 1007.73 1006.62 1006.47 1006.77 1006.61 1006.87 1007.23 1007.16 1006.74 1006.91 1007.04 1007.32 1007.44 1007.61 1008.20 1008.83 1009.48 1010.01 1010.56 1011.15 1011.86 1012.61 1013.35 1013.79 1014.22 1014.51 1014.94 1015.37 1015.71 1016.03 1016.29
1011.32 1011.15 1010.27 1009.06 1008.41 1008.06 1008.09 1008.38 1008.50 1008.92 1008.80 1008.92 1008.39 1007.98 1006.69 1006.82 1007.15 1007.67 1007.34 1008.04 1008.16 1008.19 1008.19 1008.29 1008.21 1007.91 1008.11 1008.53 1008.92 1009.45 1010.12 1010.83 1011.38 1011.96 1012.45 1012.85 1013.24 1013.75 1014.22 1014.53 1014.79 1015.17 1015.48 1015.76
1012.95 1012.10 1010.84 1009.59 1008.69 1008.52 1008.85 1008.84 1008.94 1009.05 1009.17 1008.59 1008.21 1007.73 1007.32 1007.49 1007.90 1008.55 1009.10 1009.28 1009.05 1009.18 1009.17 1009.03 1008.98 1008.72 1008.63 1008.94 1009.22 1009.52 1010.00 1010.67 1011.10 1011.42 1012.05 1012.56 1012.89 1013.30 1013.70 1014.06 1014.40 1014.69 1014.85 1015.09
1014.55 1013.45 1012.29 1011.09 1009.72 1009.52 1009.78 1009.68 1009.46 1009.69 1009.77 1009.47 1008.81 1008.55 1008.25 1008.30 1008.93 1009.71 1009.98 1010.35 1010.94 1010.73 1010.41 1010.10 1010.27 1010.16 1010.00 1010.15 1009.76 1009.92 1010.15 1010.54 1011.15 1011.50 1011.44 1011.94 1012.26 1012.59 1013.08 1013.40 1013.76 1013.98 1014.19 1014.49
1015.31 1014.60 1013.45 1012.38 1010.96 1011.13 1010.87 1010.10 1010.03 1010.21 1010.34 1010.06 1009.36 1009.47 1009.37 1009.59 1010.12 1010.70 1010.98 1011.21 1011.50 1011.79 1011.78 1011.32 1011.52 1011.69 1010.46 1011.04 1010.35 1010.35 1010.36 1010.63 1011.13 1011.87 1012.24 1011.94 1012.13 1012.43 1012.43 1012.73 1012.85 1012.97 1013.33 1013.59
1015.24 1014.95 1014.43 1013.48 1012.86 1012.46 1011.84 1011.31 1011.21 1010.96 1011.25 1010.83 1010.52 1010.44 1010.64 1010.53 1010.46 1011.68 1012.07 1012.40 1012.14 1012.30 1012.49 1012.49 1011.98 1011.94 1011.87 1010.85 1010.52 1011.37 1011.40 1011.46 1011.81 1011.92 1011.94 1011.90 1011.71 1011.79 1011.82 1011.97 1011.97 1012.03 1012.47 1012.62
1015.43 1015.44 1015.37 1014.43 1013.47 1013.31 1013.01 1012.41 1011.99 1011.63 1011.74 1011.50 1011.11 1011.18 1011.10 1011.24 1011.85 1012.68 1012.81 1012.47 1012.57 1012.58 1012.71 1012.89 1012.22 1011.95 1011.90 1012.11 1012.26 1012.25 1012.16 1011.57 1012.06 1012.51 1012.47 1012.27 1011.96 1011.81 1011.65 1011.45 1011.41 1011.48 1011.63 1011.52
1015.63 1015.73 1015.50 1014.58 1013.93 1013.92 1013.74 1013.10 1012.24 1012.39 1012.93 1012.18 1011.88 1011.70 1011.91 1012.06 1012.87 1013.43 1013.51 1013.47 1013.48 1013.81 1014.15 1014.68 1013.85 1013.34 1013.62 1013.41 1013.03 1013.38 1012.17 1012.34 1012.43 1012.43 1012.40 1012.47 1011.91 1011.80 1011.54 1011.21 1011.04 1010.84 1010.83 1010.84
1015.31 1015.69 1015.35 1014.66 1014.51 1014.98 1014.18 1013.11 1013.43 1013.42 1012.99 1012.94 1012.83 1012.83 1012.88 1013.40 1013.64 1013.92 1014.03 1014.07 1014.31 1014.82 1015.22 1015.09 1014.49 1014.29 1014.47 1013.79 1013.17 1012.76 1012.64 1012.86 1012.65 1012.41 1012.13 1011.89 1011.64 1011.44 1010.95 1010.92 1010.60 1010.22 1010.17 1010.27
1015.82 1015.60 1015.30 1015.28 1015.42 1015.52 1015.29 1015.05 1014.80 1014.12 1014.19 1014.06 1013.65 1013.84 1013.72 1013.89 1013.92 1014.19 1014.50 1014.69 1014.88 1014.81 1014.62 1014.53 1014.60 1014.76 1014.58 1014.42 1014.14 1013.84 1013.67 1013.14 1012.83 1012.66 1012.29 1012.00 1011.65 1011.48 1010.97 1010.47 1010.13 1009.71 1009.50 1009.80
1015.74 1015.61 1015.59 1015.52 1016.16 1015.99 1015.77 1015.34 1015.18 1015.45 1015.39 1015.17 1014.86 1014.57 1014.59 1014.44 1014.43 1014.38 1014.35 1014.68 1015.13 1015.26 1015.18 1015.46 1015.43 1015.29 1015.11 1014.96 1014.89 1014.34 1014.00 1013.64 1013.15 1012.90 1012.54 1012.11 1011.90 1011.69 1011.42 1010.85 1010.46 1009.89 1009.48 1009.56
1016.41 1016.19 1016.19 1016.37 1016.44 1016.17 1016.17 1016.59 1016.64 1016.62 1016.40 1015.92 1015.62 1015.76 1015.61 1015.29 1015.19 1014.94 1014.81 1014.90 1015.33 1015.67 1015.89 1015.70 1015.96 1015.65 1015.27 1015.07 1014.43 1014.36 1014.36 1014.04 1013.80 1013.40 1013.04 1012.57 1012.05 1011.66 1011.22 1010.98 1011.00 1010.59 1010.07 1010.01
1016.94 1017.02 1016.88 1016.89 1016.75 1016.77 1017.09 1017.22 1017.07 1017.09 1017.27 1017.17 1016.81 1016.29 1016.03 1015.80 1015.51 1015.27 1014.88 1014.92 1015.06 1015.51 1016.03 1016.17 1016.62 1016.42 1015.00 1015.17 1015.41 1014.99 1014.78 1014.56 1014.47 1014.40 1013.79 1013.16 1012.47 1011.64 1011.37 1011.13 1010.62 1010.52 1010.04 1009.57
Thickness
5762 5744 5735 5757 5762 5769 5764 5759 5756 5762 5770 5764 5758 5762 5764 5772 5771 5771 5772 5778 5780 5782 5789 5787 5790 5791 5787 5786 5786 5788 5789 5788 5786 5783 5780 5779 5782 5784 5785 5787 5790 5790 5788 5786
5743 5733 5761 5767 5764 5764 5762 5761 5756 5759 5766 5764 5757 5758 5766 5769 5775 5775 5777 5778 5783 5782 5784 5788 5786 5789 5788 5786 5787 5787 5789 5789 5789 5787 5786 5786 5786 5787 5786 5786 5786 5787 5788 5788
5732 5753 5767 5762 5757 5753 5757 5756 5759 5758 5757 5765 5755 5752 5761 5769 5775 5775 5781 5784 5786 5787 5784 5787 5785 5787 5791 5788 5787 5788 5790 5789 5789 5788 5787 5786 5787 5786 5786 5785 5786 5787 5788 5788
5738 5759 5758 5752 5750 5755 5742 5771 5770 5753 5747 5732 5761 5729 5752 5765 5769 5773 5780 5785 5790 5793 5793 5791 5791 5788 5791 5793 5793 5791 5791 5791 5790 5789 5787 5785 5783 5781 5786 5790 5789 5790 5791 5789
5731 5740 5744 5745 5751 5759 5754 5775 5768 5758 5740 5742 5745 5729 5756 5768 5761 5779 5787 5792 5800 5803 5801 5797 5798 5797 5798 5796 5795 5793 5793 5793 5794 5792 5789 5787 5784 5788 5789 5790 5789 5789 5791 5791
5731 5748 5747 5749 5760 5762 5770 5762 5742 5733 5726 5709 5744 5739 5756 5761 5785 5787 5792 5795 5802 5804 5806 5805 5804 5802 5800 5800 5797 5795 5793 5792 5794 5793 5790 5790 5788 5786 5785 5786 5787 5788 5790 5792
5716 5723 5742 5753 5740 5749 5745 5729 5697 5695 5692 5706 5738 5738 5771 5793 5804 5807 5802 5803 5807 5811 5807 5802 5799 5802 5802 5802 5801 5797 5794 5790 5792 5793 5791 5791 5792 5791 5788 5787 5789 5790 5792 5792
5676 5682 5719 5741 5737 5728 5726 5724 5689 5688 5687 5716 5732 5734 5773 5808 5817 5822 5824 5822 5814 5812 5814 5810 5808 5806 5805 5804 5802 5802 5796 5793 5791 5791 5792 5792 5794 5794 5794 5790 5789 5793 5795 5797
5665 5678 5719 5734 5740 5740 5718 5705 5732 5701 5701 5706 5725 5757 5791 5815 5816 5819 5821 5822 5820 5816 5820 5818 5811 5809 5808 5807 5804 5804 5798 5794 5791 5792 5792 5792 5793 5792 5793 5795 5792 5792 5795 5797
5680 5675 5708 5726 5735 5732 5726 5731 5701 5683 5679 5687 5715 5738 5751 5791 5809 5816 5820 5824 5826 5824 5821 5822 5816 5813 5808 5806 5805 5802 5802 5796 5793 5793 5791 5792 5794 5794 5793 5792 5793 5792 5793 5795
5674 5672 5689 5710 5705 5705 5704 5703 5696 5700 5691 5686 5700 5724 5780 5794 5805 5810 5817 5824 5828 5829 5830 5831 5826 5819 5812 5810 5809 5807 5802 5798 5794 5793 5792 5790 5792 5794 5794 5795 5792 5792 5792 5793
5672 5653 5656 5684 5704 5714 5713 5709 5710 5682 5686 5690 5703 5731 5791 5794 5801 5808 5813 5826 5830 5835 5834 5833 5832 5825 5815 5809 5808 5811 5808 5802 5801 5798 5795 5791 5791 5792 5792 5794 5796 5794 5793 5794
5664 5640 5638 5656 5675 5697 5704 5704 5701 5693 5690 5686 5696 5727 5784 5789 5791 5800 5805 5807 5821 5824 5824 5828 5824 5823 5822 5820 5815 5813 5813 5809 5807 5803 5797 5793 5790 5790 5791 5793 5794 5794 5793 5792
5655 5635 5644 5640 5667 5679 5688 5698 5700 5698 5672 5688 5698 5738 5767 5780 5782 5791 5795 5796 5801 5810 5812 5814 5816 5821 5826 5824 5819 5816 5815 5813 5808 5804 5799 5793 5791 5790 5790 5791 5791 5791 5790 5791
5633 5643 5645 5658 5669 5682 5684 5688 5691 5694 5702 5699 5720 5723 5759 5769 5776 5777 5788 5788 5790 5794 5799 5802 5805 5814 5818 5816 5813 5812 5811 5806 5802 5799 5796 5791 5791 5789 5787 5787 5790 5789 5790 5791
5616 5634 5648 5663 5675 5674 5663 5673 5681 5685 5690 5702 5715 5723 5747 5759 5767 5767 5767 5771 5777 5781 5788 5792 5796 5804 5809 5808 5807 5807 5806 5802 5799 5797 5793 5790 5788 5788 5787 5786 5786 5787 5788 5788
5597 5611 5622 5640 5655 5659 5652 5660 5670 5678 5686 5690 5695 5715 5734 5744 5747 5750 5754 5757 5755 5760 5772 5778 5778 5783 5787 5791 5798 5800 5800 5799 5794 5791 5792 5786 5782 5783 5784 5786 5784 5785 5786 5786
5588 5599 5605 5620 5640 5628 5642 5666 5670 5668 5674 5683 5698 5703 5715 5724 5726 5732 5739 5743 5745 5747 5754 5762 5761 5762 5774 5775 5787 5792 5795 5792 5788 5780 5779 5782 5781 5779 5785 5787 5787 5787 5786 5786
5581 5587 5598 5610 5606 5622 5637 5647 5650 5655 5658 5671 5680 5688 5696 5708 5719 5711 5719 5724 5732 5736 5741 5746 5753 5755 5757 5769 5774 5773 5775 5775 5774 5773 5774 5778 5783 5785 5786 5786 5787 5788 5785 5787
5559 5558 5579 5592 5610 5606 5618 5633 5644 5651 5645 5664 5673 5676 5685 5694 5690 5694 5702 5713 5720 5726 5731 5733 5744 5751 5754 5754 5755 5757 5760 5768 5765 5761 5763 5768 5773 5776 5780 5785 5786 5786 5787 5789
5561 5561 5575 5587 5597 5606 5612 5621 5640 5630 5634 5654 5661 5667 5670 5675 5677 5682 5687 5693 5701 5705 5707 5707 5719 5726 5728 5734 5741 5738 5749 5748 5753 5757 5758 5761 5766 5770 5774 5778 5781 5783 5785 5787
5561 5567 5577 5579 5589 5595 5606 5625 5622 5628 5635 5641 5647 5651 5654 5657 5662 5667 5672 5678 5683 5682 5685 5692 5702 5708 5710 5720 5729 5735 5739 5740 5744 5751 5757 5759 5762 5767 5772 5773 5776 5779 5783 5783
5559 5564 5576 5580 5584 5587 5594 5600 5605 5618 5621 5627 5635 5638 5643 5647 5651 5656 5658 5661 5666 5673 5680 5685 5690 5694 5699 5704 5709 5715 5720 5728 5735 5739 5745 5751 5756 5759 5764 5770 5776 5779 5782 5780
5555 5562 5570 5574 5574 5581 5586 5596 5600 5602 5604 5611 5618 5628 5631 5633 5639 5645 5649 5651 5653 5657 5662 5663 5668 5675 5678 5684 5689 5698 5706 5712 5721 5727 5733 5740 5744 5747 5753 5759 5763 5770 5775 5775
5545 5554 5561 5560 5569 5576 5583 5578 5580 5586 5592 5597 5605 5606 5609 5618 5623 5629 5634 5637 5638 5639 5642 5648 5649 5657 5664 5667 5680 5686 5691 5698 5704 5712 5718 5725 5733 5738 5745 5749 5749 5755 5763 5765
5535 5544 5552 5555 5559 5565 5569 5569 5571 5573 5574 5578 5584 5594 5598 5603 5609 5616 5622 5625 5627 5628 5626 5631 5630 5628 5651 5654 5657 5666 5672 5679 5685 5691 5701 5709 5718 5728 5732 5736 5742 5746 5753 5756